When you browse on this site, cookies collect data to enhance your experience and personalize the content and advertising you see.
Visit our Privacy Policy to learn more. By continuing to use the site, you agree to this use of cookies and data.
  • In Belgien
  • Länderverzeichnis
  • Für 7 Tage
  • Wassertemperatur
  • Satellitenkarten
  • Wetterkarte
  • Widgets
  • user-avatar
    Anmelden

    Stündliche Wetter Tarnawatka

    Heute, 10 Dezember, Montag

    Zeit Temperatur Niederschläge Wind Luftdruck Luftfeuchtigkeit
    00:00 0°C° 0 mm 5 m/S 724 mmHg 87%
    01:00 0°C° 0 mm 5 m/S 724 mmHg 88%
    02:00 0°C° 0 mm 5 m/S 724 mmHg 88%
    03:00 0°C° 0 mm 5 m/S 724 mmHg 89%
    04:00 0°C° 0 mm 5 m/S 724 mmHg 89%
    05:00 0°C° 0 mm 5 m/S 725 mmHg 89%
    06:00 0°C° 0.1 mm 5 m/S 725 mmHg 89%
    07:00 0°C° 0.1 mm 5 m/S 725 mmHg 90%
    08:00 0°C° 0.1 mm 5 m/S 725 mmHg 90%
    09:00 +1°C° 0.1 mm 5 m/S 725 mmHg 87%
    10:00 +1°C° 0.1 mm 6 m/S 725 mmHg 85%
    11:00 +1°C° 0.1 mm 6 m/S 726 mmHg 83%
    12:00 +2°C° 0.1 mm 6 m/S 726 mmHg 80%
    13:00 +2°C° 0.1 mm 6 m/S 726 mmHg 77%
    14:00 +2°C° 0.1 mm 6 m/S 727 mmHg 74%
    15:00 +1°C° 0 mm 5 m/S 727 mmHg 76%
    16:00 +1°C° 0 mm 4 m/S 728 mmHg 79%
    17:00 0°C° 0 mm 4 m/S 728 mmHg 81%
    18:00 0°C° 0 mm 4 m/S 729 mmHg 82%
    19:00 -1°C° 0 mm 4 m/S 729 mmHg 83%
    20:00 -1°C° 0 mm 4 m/S 729 mmHg 84%
    21:00 -1°C° 0 mm 4 m/S 729 mmHg 84%
    22:00 -2°C° 0 mm 4 m/S 730 mmHg 85%
    23:00 -2°C° 0 mm 4 m/S 730 mmHg 85%

    Morgen, 11 Dezember, Dienstag

    Zeit Temperatur Niederschläge Wind Luftdruck Luftfeuchtigkeit
    00:00 -2°C° 0 mm 4 m/S 730 mmHg 86%
    01:00 -2°C° 0 mm 4 m/S 730 mmHg 87%
    02:00 -2°C° 0 mm 4 m/S 731 mmHg 87%
    03:00 -3°C° 0 mm 4 m/S 731 mmHg 88%
    04:00 -2°C° 0 mm 3 m/S 731 mmHg 90%
    05:00 -2°C° 0 mm 3 m/S 731 mmHg 91%
    06:00 -2°C° 0 mm 3 m/S 731 mmHg 92%
    07:00 -4°C° 0 mm 3 m/S 731 mmHg 92%
    08:00 -3°C° 0 mm 2 m/S 731 mmHg 93%
    09:00 -2°C° 0 mm 3 m/S 732 mmHg 89%
    10:00 -1°C° 0 mm 3 m/S 732 mmHg 85%
    11:00 0°C° 0 mm 3 m/S 732 mmHg 81%
    12:00 0°C° 0 mm 3 m/S 732 mmHg 78%
    13:00 0°C° 0 mm 3 m/S 732 mmHg 74%
    14:00 +1°C° 0 mm 3 m/S 732 mmHg 71%
    15:00 +1°C° 0 mm 2 m/S 732 mmHg 75%
    16:00 -1°C° 0 mm 2 m/S 733 mmHg 78%
    17:00 -1°C° 0 mm 2 m/S 733 mmHg 81%
    18:00 -2°C° 0 mm 2 m/S 733 mmHg 82%
    19:00 -2°C° 0 mm 2 m/S 733 mmHg 83%
    20:00 -2°C° 0 mm 2 m/S 733 mmHg 84%
    21:00 -2°C° 0 mm 2 m/S 733 mmHg 84%
    22:00 -2°C° 0 mm 2 m/S 734 mmHg 84%
    23:00 -2°C° 0 mm 2 m/S 734 mmHg 84%

    übermorgen, 12 Dezember, Mittwoch

    Zeit Temperatur Niederschläge Wind Luftdruck Luftfeuchtigkeit
    00:00 -3°C° 0 mm 2 m/S 734 mmHg 84%
    01:00 -3°C° 0 mm 2 m/S 734 mmHg 84%
    02:00 -1°C° 0 mm 1 m/S 734 mmHg 84%
    03:00 -1°C° 0 mm 1 m/S 734 mmHg 84%
    04:00 -1°C° 0 mm 1 m/S 735 mmHg 84%
    05:00 -1°C° 0 mm 1 m/S 735 mmHg 84%
    06:00 -1°C° 0 mm 1 m/S 735 mmHg 84%
    07:00 -1°C° 0 mm 1 m/S 735 mmHg 85%
    08:00 -1°C° 0 mm 1 m/S 735 mmHg 85%
    09:00 0°C° 0 mm 1 m/S 736 mmHg 82%
    10:00 0°C° 0 mm 1 m/S 736 mmHg 79%
    11:00 +1°C° 0 mm 1 m/S 736 mmHg 75%
    12:00 +1°C° 0 mm 1 m/S 736 mmHg 75%
    13:00 +1°C° 0 mm 1 m/S 736 mmHg 74%
    14:00 +2°C° 0 mm 1 m/S 736 mmHg 73%
    15:00 -1°C° 0 mm 2 m/S 736 mmHg 78%
    16:00 -2°C° 0 mm 2 m/S 736 mmHg 82%
    17:00 -3°C° 0 mm 2 m/S 736 mmHg 86%
    18:00 -3°C° 0 mm 2 m/S 737 mmHg 88%
    19:00 -3°C° 0 mm 2 m/S 737 mmHg 89%
    20:00 -3°C° 0 mm 2 m/S 737 mmHg 90%
    21:00 -4°C° 0 mm 3 m/S 737 mmHg 90%
    22:00 -4°C° 0 mm 3 m/S 737 mmHg 90%
    23:00 -4°C° 0 mm 3 m/S 737 mmHg 90%

    13 Dezember, Donnerstag

    Zeit Temperatur Niederschläge Wind Luftdruck Luftfeuchtigkeit
    00:00 -4°C° 0.1 mm 3 m/S 737 mmHg 90%
    01:00 -4°C° 0.1 mm 4 m/S 737 mmHg 89%
    02:00 -4°C° 0.1 mm 4 m/S 737 mmHg 89%
    03:00 -4°C° 0.2 mm 4 m/S 737 mmHg 89%
    04:00 -5°C° 0.2 mm 5 m/S 737 mmHg 89%
    05:00 -4°C° 0.2 mm 5 m/S 736 mmHg 89%
    06:00 -4°C° 0.3 mm 5 m/S 736 mmHg 89%
    07:00 -4°C° 0.3 mm 5 m/S 736 mmHg 89%
    08:00 -4°C° 0.3 mm 5 m/S 736 mmHg 90%
    09:00 -4°C° 0.3 mm 5 m/S 736 mmHg 90%
    10:00 -4°C° 0.3 mm 5 m/S 736 mmHg 89%
    11:00 -4°C° 0.3 mm 5 m/S 736 mmHg 89%
    12:00 -4°C° 0.3 mm 5 m/S 736 mmHg 89%
    13:00 -3°C° 0.3 mm 4 m/S 736 mmHg 89%
    14:00 -3°C° 0.3 mm 4 m/S 736 mmHg 89%
    15:00 -3°C° 0.3 mm 4 m/S 736 mmHg 90%
    16:00 -3°C° 0.3 mm 4 m/S 736 mmHg 91%
    17:00 -2°C° 0.3 mm 3 m/S 736 mmHg 93%
    18:00 -2°C° 0.2 mm 3 m/S 736 mmHg 93%
    19:00 -2°C° 0.2 mm 3 m/S 736 mmHg 94%
    20:00 -2°C° 0.2 mm 3 m/S 736 mmHg 94%
    21:00 -2°C° 0.2 mm 3 m/S 736 mmHg 94%
    22:00 -2°C° 0.2 mm 3 m/S 736 mmHg 94%
    23:00 -2°C° 0.2 mm 3 m/S 736 mmHg 95%

    14 Dezember, Freitag

    Zeit Temperatur Niederschläge Wind Luftdruck Luftfeuchtigkeit
    00:00 -2°C° 0.1 mm 2 m/S 736 mmHg 95%
    01:00 -2°C° 0.1 mm 2 m/S 736 mmHg 95%
    02:00 -2°C° 0.1 mm 2 m/S 736 mmHg 95%
    03:00 -2°C° 0.1 mm 2 m/S 736 mmHg 96%
    04:00 -2°C° 0.1 mm 2 m/S 736 mmHg 96%
    05:00 -2°C° 0.1 mm 2 m/S 736 mmHg 96%
    06:00 -3°C° 0 mm 2 m/S 737 mmHg 96%
    07:00 -3°C° 0 mm 2 m/S 737 mmHg 96%
    08:00 -3°C° 0 mm 2 m/S 737 mmHg 96%
    09:00 -3°C° 0 mm 2 m/S 737 mmHg 94%
    10:00 -2°C° 0 mm 2 m/S 737 mmHg 93%
    11:00 -2°C° 0 mm 2 m/S 738 mmHg 91%
    12:00 -2°C° 0 mm 2 m/S 737 mmHg 89%
    13:00 -2°C° 0 mm 2 m/S 737 mmHg 87%
    14:00 -2°C° 0 mm 2 m/S 737 mmHg 85%
    15:00 -2°C° 0.1 mm 2 m/S 737 mmHg 87%
    16:00 0°C° 0.1 mm 1 m/S 737 mmHg 88%
    17:00 -1°C° 0.1 mm 1 m/S 738 mmHg 90%
    18:00 -1°C° 0 mm 1 m/S 738 mmHg 91%
    19:00 -1°C° 0 mm 1 m/S 738 mmHg 92%
    20:00 -1°C° 0 mm 1 m/S 738 mmHg 93%
    21:00 -2°C° 0 mm 1 m/S 738 mmHg 93%
    22:00 -2°C° 0 mm 1 m/S 738 mmHg 94%
    23:00 -2°C° 0 mm 1 m/S 738 mmHg 94%

    15 Dezember, Samstag

    Zeit Temperatur Niederschläge Wind Luftdruck Luftfeuchtigkeit
    00:00 -2°C° 0 mm 1 m/S 738 mmHg 94%
    01:00 -2°C° 0 mm 1 m/S 738 mmHg 94%
    02:00 -2°C° 0 mm 1 m/S 738 mmHg 94%
    03:00 -2°C° 0 mm 1 m/S 738 mmHg 94%
    04:00 -4°C° 0 mm 2 m/S 738 mmHg 94%
    05:00 -4°C° 0 mm 2 m/S 738 mmHg 94%
    06:00 -4°C° 0 mm 2 m/S 738 mmHg 94%
    07:00 -4°C° 0 mm 2 m/S 738 mmHg 94%
    08:00 -4°C° 0 mm 2 m/S 739 mmHg 94%
    09:00 -4°C° 0.1 mm 2 m/S 739 mmHg 92%
    10:00 -3°C° 0.1 mm 2 m/S 740 mmHg 90%
    11:00 -3°C° 0.1 mm 2 m/S 740 mmHg 88%
    12:00 -2°C° 0.1 mm 2 m/S 740 mmHg 87%
    13:00 -2°C° 0.1 mm 3 m/S 740 mmHg 85%
    14:00 -2°C° 0.1 mm 3 m/S 740 mmHg 84%
    15:00 -4°C° 0 mm 3 m/S 741 mmHg 86%
    16:00 -4°C° 0 mm 3 m/S 741 mmHg 88%
    17:00 -4°C° 0 mm 3 m/S 741 mmHg 90%
    18:00 -5°C° 0 mm 3 m/S 741 mmHg 92%
    19:00 -5°C° 0 mm 3 m/S 742 mmHg 93%
    20:00 -5°C° 0 mm 3 m/S 742 mmHg 94%
    21:00 -5°C° 0 mm 2 m/S 742 mmHg 94%
    22:00 -5°C° 0 mm 2 m/S 742 mmHg 94%
    23:00 -5°C° 0 mm 2 m/S 743 mmHg 94%
    Mehr zeigen